VJC968 VVPQ-RKPK

Flight info

Callsign VJC968
Flight time N/A
Altitude 33000
Route OSOTA M753 TIA N639 VIBUN R575 PAPRA/K0863F330 A1 IKELA/N0465F330 DCT MORTU DCT NOBAD DCT ENVAR M750 ANLOT B1 APU A1 DRAKE Q11 WP900 L4 LIPLO Y741 ATOTI Y722 SOSDO Y571 ANROD DCT KEVOX
Aircraft A21N/M-SDE2E3FGHIRWXY/LB1

Departure

Time 2026-04-30 11:04
Airport Phú Quốc International Airport (VVPQ)

Arrival

Time N/A
Airport Gimhae International Airport (RKPK)
Time Latitude Longitude Altitude Speed Heading
2026-04-30 10:46 10.16424 103.99845 5 ft 0 kts 187°
2026-04-30 10:50 10.16444 103.99848 32 ft 4 kts 191°
2026-04-30 10:50 10.16470 103.99855 32 ft 4 kts 200°
2026-04-30 10:51 10.16494 103.99867 32 ft 4 kts 220°
2026-04-30 10:51 10.16507 103.99886 33 ft 3 kts 270°
2026-04-30 10:51 10.16507 103.99894 33 ft 0 kts 276°
2026-04-30 10:55 10.16508 103.99880 33 ft 3 kts 276°
2026-04-30 10:55 10.16510 103.99855 32 ft 4 kts 276°
2026-04-30 10:56 10.16513 103.99823 32 ft 5 kts 276°
2026-04-30 10:56 10.16517 103.99784 32 ft 6 kts 276°
2026-04-30 10:56 10.16522 103.99739 32 ft 7 kts 276°
2026-04-30 10:56 10.16527 103.99688 32 ft 8 kts 276°
2026-04-30 10:57 10.16533 103.99629 32 ft 9 kts 276°
2026-04-30 10:57 10.16540 103.99565 31 ft 8 kts 279°
2026-04-30 10:57 10.16587 103.99539 31 ft 9 kts
2026-04-30 10:57 10.16654 103.99546 31 ft 10 kts
2026-04-30 10:58 10.16728 103.99553 31 ft 11 kts
2026-04-30 10:58 10.16787 103.99530 31 ft 10 kts 291°
2026-04-30 10:58 10.16797 103.99454 31 ft 11 kts 276°
2026-04-30 10:58 10.16805 103.99369 31 ft 13 kts 276°
2026-04-30 10:59 10.16815 103.99276 30 ft 14 kts 275°
2026-04-30 10:59 10.16824 103.99174 30 ft 15 kts 276°
2026-04-30 10:59 10.16835 103.99061 29 ft 17 kts 276°
2026-04-30 10:59 10.16847 103.98938 29 ft 18 kts 276°
2026-04-30 11:00 10.16861 103.98804 28 ft 20 kts 276°
2026-04-30 11:00 10.16874 103.98663 28 ft 20 kts 276°
2026-04-30 11:00 10.16889 103.98520 27 ft 21 kts 276°
2026-04-30 11:00 10.16904 103.98373 27 ft 21 kts 276°
2026-04-30 11:01 10.16919 103.98222 28 ft 22 kts 276°
2026-04-30 11:01 10.16934 103.98073 26 ft 17 kts 276°
2026-04-30 11:01 10.16941 103.98001 25 ft 10 kts 275°
2026-04-30 11:01 10.16976 103.97946 25 ft 11 kts 352°
2026-04-30 11:02 10.17049 103.97954 25 ft 11 kts
2026-04-30 11:02 10.17108 103.97963 25 ft 6 kts 33°
2026-04-30 11:02 10.17115 103.98004 25 ft 5 kts 96°
2026-04-30 11:02 10.17113 103.98020 25 ft 8 kts 96°
2026-04-30 11:03 10.17089 103.98288 26 ft 74 kts 93°
2026-04-30 11:03 10.17012 103.99037 32 ft 140 kts 96°
2026-04-30 11:03 10.16896 104.00209 51 ft 187 kts 96°
2026-04-30 11:04 10.16667 104.02818 1164 ft 184 kts 98°
2026-04-30 11:04 10.16514 104.04093 1767 ft 184 kts 96°
2026-04-30 11:04 10.16368 104.05435 2118 ft 198 kts 96°
2026-04-30 11:04 10.16217 104.06875 2507 ft 212 kts 96°
2026-04-30 11:05 10.16063 104.08420 2807 ft 230 kts 95°
2026-04-30 11:05 10.15897 104.10102 3139 ft 249 kts 95°
2026-04-30 11:05 10.15877 104.11892 3632 ft 258 kts 81°
2026-04-30 11:05 10.16517 104.13601 4295 ft 263 kts 57°
2026-04-30 11:06 10.17851 104.14880 4973 ft 269 kts 32°
2026-04-30 11:06 10.19614 104.15583 5647 ft 275 kts 19°
2026-04-30 11:06 10.21469 104.16097 6313 ft 278 kts 18°
2026-04-30 11:06 10.23316 104.16609 6939 ft 280 kts 18°
2026-04-30 11:07 10.25199 104.17154 7583 ft 282 kts 19°
2026-04-30 11:07 10.27085 104.17714 8234 ft 283 kts 19°
2026-04-30 11:07 10.28982 104.18289 8863 ft 286 kts 19°
2026-04-30 11:07 10.30895 104.18875 9486 ft 289 kts 19°
2026-04-30 11:08 10.32831 104.19469 10008 ft 295 kts 19°
2026-04-30 11:08 10.34847 104.20087 10272 ft 310 kts 19°
2026-04-30 11:08 10.36962 104.20737 10507 ft 325 kts 19°
2026-04-30 11:08 10.39150 104.21411 10939 ft 331 kts 19°
2026-04-30 11:09 10.41367 104.22095 11481 ft 334 kts 19°
2026-04-30 11:09 10.43602 104.22787 12033 ft 337 kts 19°
2026-04-30 11:09 10.45859 104.23485 12590 ft 340 kts 19°
2026-04-30 11:09 10.48131 104.24184 13141 ft 343 kts 19°
2026-04-30 11:10 10.50422 104.24890 13685 ft 345 kts 19°
2026-04-30 11:10 10.52732 104.25602 14162 ft 348 kts 19°
2026-04-30 11:10 10.54990 104.26432 14635 ft 350 kts 28°
2026-04-30 11:10 10.57038 104.27763 15086 ft 351 kts 39°
2026-04-30 11:11 10.58959 104.29316 15563 ft 353 kts 40°
2026-04-30 11:11 10.60875 104.30901 16027 ft 357 kts 40°
2026-04-30 11:11 10.62816 104.32493 16471 ft 360 kts 40°
2026-04-30 11:11 10.64783 104.34093 16927 ft 364 kts 40°
2026-04-30 11:12 10.66754 104.35689 17362 ft 367 kts 40°
2026-04-30 11:12 10.68762 104.37314 17805 ft 371 kts 40°
2026-04-30 11:12 10.70794 104.38954 18239 ft 374 kts 40°
2026-04-30 11:12 10.72836 104.40609 18619 ft 377 kts 40°
2026-04-30 11:13 10.74891 104.42279 19012 ft 379 kts 40°
2026-04-30 11:13 10.76958 104.43959 19399 ft 382 kts 39°
2026-04-30 11:13 10.79043 104.45647 19778 ft 384 kts 40°
2026-04-30 11:13 10.81147 104.47350 20159 ft 387 kts 39°
2026-04-30 11:14 10.83232 104.49038 20536 ft 389 kts 39°
2026-04-30 11:14 10.85358 104.50760 20908 ft 392 kts 39°
2026-04-30 11:14 10.87497 104.52494 21278 ft 394 kts 39°
2026-04-30 11:14 10.89652 104.54236 21649 ft 397 kts 39°
2026-04-30 11:15 10.91827 104.55992 22007 ft 400 kts 39°
2026-04-30 11:15 10.94008 104.57758 22372 ft 402 kts 39°
2026-04-30 11:15 10.96202 104.59538 22714 ft 405 kts 39°
2026-04-30 11:15 10.98416 104.61332 23068 ft 407 kts 38°
2026-04-30 11:16 11.00643 104.63127 23411 ft 410 kts 38°
2026-04-30 11:16 11.02886 104.64930 23688 ft 412 kts 38°
2026-04-30 11:16 11.05141 104.66751 23985 ft 414 kts 38°
2026-04-30 11:16 11.07401 104.68580 24265 ft 416 kts 38°
2026-04-30 11:17 11.09670 104.70420 24574 ft 418 kts 38°
2026-04-30 11:17 11.11917 104.72246 24848 ft 420 kts 38°
2026-04-30 11:17 11.14206 104.74104 25134 ft 422 kts 38°
2026-04-30 11:17 11.16504 104.75969 25426 ft 423 kts 38°
2026-04-30 11:18 11.18819 104.77847 25695 ft 426 kts 38°
2026-04-30 11:18 11.23467 104.81614 26240 ft 429 kts 38°
2026-04-30 11:18 11.25807 104.83516 26511 ft 431 kts 38°
2026-04-30 11:19 11.28161 104.85428 26779 ft 433 kts 38°
2026-04-30 11:19 11.30522 104.87343 27031 ft 435 kts 38°
2026-04-30 11:19 11.32958 104.89161 27292 ft 436 kts 31°
2026-04-30 11:19 11.35669 104.90554 27521 ft 436 kts 19°
2026-04-30 11:20 11.38588 104.91401 27768 ft 437 kts 12°
2026-04-30 11:20 11.41571 104.92022 28020 ft 438 kts 10°
2026-04-30 11:20 11.44572 104.92618 28257 ft 440 kts 10°
2026-04-30 11:20 11.47580 104.93233 28492 ft 442 kts 11°
2026-04-30 11:21 11.50601 104.93869 28732 ft 443 kts 11°
2026-04-30 11:21 11.53625 104.94510 28960 ft 444 kts 11°
2026-04-30 11:21 11.56658 104.95156 29170 ft 446 kts 11°
2026-04-30 11:21 11.59701 104.95805 29401 ft 448 kts 11°
2026-04-30 11:22 11.62754 104.96459 29611 ft 449 kts 11°
2026-04-30 11:22 11.65817 104.97114 29817 ft 451 kts 11°
2026-04-30 11:22 11.68899 104.97771 29982 ft 452 kts 11°
2026-04-30 11:22 11.71952 104.98422 30157 ft 454 kts 11°
2026-04-30 11:23 11.75045 104.99083 30351 ft 455 kts 11°
2026-04-30 11:23 11.78150 104.99747 30530 ft 455 kts 11°
2026-04-30 11:23 11.84364 105.01074 30907 ft 457 kts 11°
2026-04-30 11:24 11.87477 105.01740 31088 ft 457 kts 11°
2026-04-30 11:24 11.90595 105.02407 31277 ft 458 kts 11°
2026-04-30 11:24 11.93713 105.03074 31484 ft 457 kts 11°
2026-04-30 11:25 11.99931 105.04405 31968 ft 455 kts 11°
2026-04-30 11:25 12.03031 105.05068 32165 ft 455 kts 10°
2026-04-30 11:25 12.09223 105.06394 32612 ft 453 kts 10°
2026-04-30 11:26 12.14349 105.07492 32856 ft 452 kts 10°
2026-04-30 11:26 12.20533 105.08818 32848 ft 458 kts 10°
2026-04-30 11:27 12.26818 105.10167 32830 ft 463 kts 10°
2026-04-30 11:27 12.33131 105.11521 32820 ft 463 kts 10°
2026-04-30 11:28 12.42566 105.13547 32824 ft 463 kts 10°
2026-04-30 11:29 12.48883 105.14906 32822 ft 463 kts 10°
2026-04-30 11:29 12.58352 105.16938 32821 ft 463 kts 10°
2026-04-30 11:30 12.67785 105.18970 32823 ft 463 kts 10°
2026-04-30 11:31 12.74092 105.20327 32828 ft 463 kts
2026-04-30 11:31 12.80406 105.21689 32826 ft 463 kts
2026-04-30 11:32 12.86719 105.23052 32827 ft 463 kts
2026-04-30 11:32 12.92984 105.24403 32832 ft 463 kts
2026-04-30 11:33 13.02449 105.26445 32830 ft 463 kts
2026-04-30 11:33 13.08770 105.27814 32836 ft 464 kts
2026-04-30 11:34 13.15107 105.29177 32833 ft 465 kts
2026-04-30 11:34 13.21461 105.30543 32840 ft 466 kts
2026-04-30 11:35 13.27808 105.31917 32836 ft 466 kts
2026-04-30 11:35 13.34124 105.33284 32838 ft 466 kts
2026-04-30 11:36 13.40465 105.34660 32838 ft 466 kts
2026-04-30 11:36 13.46827 105.36037 32841 ft 467 kts
2026-04-30 11:37 13.53191 105.37416 32840 ft 467 kts
2026-04-30 11:37 13.59556 105.38797 32843 ft 467 kts
2026-04-30 11:38 13.65887 105.40170 32843 ft 467 kts
2026-04-30 11:38 13.72251 105.41550 32843 ft 467 kts
2026-04-30 11:39 13.78544 105.43203 32837 ft 469 kts 20°
2026-04-30 11:39 13.81443 105.44771 32837 ft 473 kts 32°
2026-04-30 11:39 13.84048 105.46862 32849 ft 476 kts 38°
2026-04-30 11:40 13.89060 105.51305 32844 ft 476 kts 38°
2026-04-30 11:40 13.94108 105.55738 32843 ft 476 kts 38°
2026-04-30 11:41 13.99130 105.60115 32848 ft 476 kts 38°
2026-04-30 11:41 14.04210 105.64549 32845 ft 476 kts 38°
2026-04-30 11:42 14.09232 105.68941 32849 ft 477 kts 38°
2026-04-30 11:42 14.14257 105.73428 32851 ft 478 kts 38°
2026-04-30 11:43 14.19306 105.77877 32851 ft 477 kts 37°
2026-04-30 11:43 14.24355 105.82334 32852 ft 478 kts 38°
2026-04-30 11:44 14.29401 105.86797 32855 ft 478 kts 37°
2026-04-30 11:44 14.34481 105.91230 32854 ft 477 kts 37°
2026-04-30 11:45 14.39488 105.95673 32861 ft 479 kts 38°
2026-04-30 11:45 14.44542 106.00177 32856 ft 481 kts 37°
2026-04-30 11:46 14.49616 106.04693 32859 ft 480 kts 37°
2026-04-30 11:46 14.54695 106.09165 32860 ft 480 kts 37°
2026-04-30 11:47 14.59762 106.13668 32862 ft 480 kts 37°
2026-04-30 11:47 14.64855 106.18145 32866 ft 480 kts 37°
2026-04-30 11:48 14.69927 106.22630 32872 ft 480 kts 37°
2026-04-30 11:48 14.74950 106.27137 32872 ft 481 kts 38°
2026-04-30 11:49 14.80004 106.31681 32885 ft 481 kts 37°
2026-04-30 11:49 14.85067 106.36196 32886 ft 480 kts 37°
2026-04-30 11:50 14.90150 106.40646 32907 ft 479 kts 37°
2026-04-30 11:50 14.95170 106.45110 32908 ft 479 kts 37°
2026-04-30 11:51 15.00215 106.49623 32902 ft 479 kts 37°
2026-04-30 11:51 15.05248 106.54120 32925 ft 478 kts 37°
2026-04-30 11:52 15.10271 106.58640 32918 ft 478 kts 38°
2026-04-30 11:52 15.15276 106.63172 32909 ft 479 kts 38°
2026-04-30 11:53 15.20294 106.67701 32920 ft 478 kts 37°
2026-04-30 11:53 15.25324 106.72212 32916 ft 478 kts 38°
2026-04-30 11:54 15.30352 106.76710 32917 ft 478 kts 38°
2026-04-30 11:54 15.35354 106.81185 32927 ft 478 kts 38°
2026-04-30 11:55 15.40374 106.85720 32925 ft 479 kts 38°
2026-04-30 11:55 15.45426 106.90236 32925 ft 479 kts 37°
2026-04-30 11:56 15.50468 106.94755 32948 ft 480 kts 38°
2026-04-30 11:56 15.55501 106.99299 32958 ft 479 kts 38°
2026-04-30 11:57 15.60528 107.03834 32958 ft 479 kts 38°
2026-04-30 11:57 15.65517 107.08368 32982 ft 480 kts 39°
2026-04-30 11:58 15.70581 107.12941 32986 ft 485 kts 38°
2026-04-30 11:58 15.75459 107.17800 32983 ft 490 kts 50°
2026-04-30 11:59 15.77247 107.20823 32996 ft 494 kts 64°
2026-04-30 11:59 15.78417 107.24184 33011 ft 495 kts 72°
2026-04-30 11:59 15.80329 107.31047 33013 ft 495 kts 73°
2026-04-30 12:00 15.82243 107.37868 33012 ft 495 kts 72°
2026-04-30 12:00 15.84213 107.44706 33013 ft 493 kts 72°
2026-04-30 12:01 15.86186 107.51532 33006 ft 493 kts 72°
2026-04-30 12:01 15.88143 107.58352 33006 ft 493 kts 72°
2026-04-30 12:02 15.90105 107.65178 32987 ft 493 kts 72°
2026-04-30 12:02 15.92001 107.71966 32984 ft 493 kts 73°
2026-04-30 12:03 15.94791 107.82256 32982 ft 495 kts 74°
2026-04-30 12:04 15.96673 107.89159 32964 ft 498 kts 74°
2026-04-30 12:04 15.98605 107.96071 32968 ft 498 kts 73°
2026-04-30 12:05 16.00549 108.02969 32961 ft 498 kts 73°
2026-04-30 12:05 16.02488 108.09877 32965 ft 498 kts 73°
2026-04-30 12:06 16.04426 108.16788 32963 ft 498 kts 72°
2026-04-30 12:06 16.07381 108.23186 32966 ft 495 kts 55°
2026-04-30 12:07 16.11260 108.29112 32965 ft 495 kts 54°
2026-04-30 12:07 16.15129 108.35035 32963 ft 495 kts 54°
2026-04-30 12:08 16.18975 108.40989 32955 ft 495 kts 54°
2026-04-30 12:08 16.22815 108.46933 32969 ft 495 kts 55°
2026-04-30 12:09 16.26636 108.52856 32965 ft 496 kts 55°
2026-04-30 12:09 16.30478 108.58819 32964 ft 496 kts 55°
2026-04-30 12:10 16.34327 108.64791 32966 ft 496 kts 55°
2026-04-30 12:10 16.38215 108.70724 32968 ft 496 kts 54°
2026-04-30 12:11 16.42149 108.76578 32976 ft 496 kts 54°
2026-04-30 12:11 16.46090 108.82481 32973 ft 497 kts 54°
2026-04-30 12:12 16.50016 108.88421 32976 ft 497 kts 55°
2026-04-30 12:12 16.53928 108.94362 32978 ft 498 kts 54°
2026-04-30 12:13 16.57858 109.00314 32986 ft 498 kts 55°
2026-04-30 12:13 16.61747 109.06300 32987 ft 498 kts 54°
2026-04-30 12:14 16.65639 109.12214 32978 ft 498 kts 55°
2026-04-30 12:14 16.69487 109.18207 32983 ft 496 kts 55°
2026-04-30 12:15 16.73356 109.24161 32988 ft 496 kts 54°
2026-04-30 12:15 16.77219 109.30134 32985 ft 496 kts 55°
2026-04-30 12:16 16.81075 109.36102 32996 ft 496 kts 54°
2026-04-30 12:16 16.84933 109.42012 32989 ft 496 kts 54°
2026-04-30 12:17 16.90726 109.50929 32988 ft 493 kts 54°
2026-04-30 12:17 16.94560 109.56876 32988 ft 493 kts 54°
2026-04-30 12:18 16.98406 109.62803 32988 ft 493 kts 54°
2026-04-30 12:18 17.02241 109.68753 32988 ft 493 kts 55°
2026-04-30 12:19 17.06029 109.74670 32989 ft 494 kts 55°
2026-04-30 12:19 17.09849 109.80638 32989 ft 494 kts 55°
2026-04-30 12:20 17.13671 109.86605 32987 ft 494 kts 55°
2026-04-30 12:20 17.17507 109.92577 32992 ft 494 kts 54°
2026-04-30 12:21 17.21349 109.98542 32988 ft 494 kts 54°
2026-04-30 12:21 17.25169 110.04453 32988 ft 494 kts 54°
2026-04-30 12:22 17.28998 110.10429 32992 ft 494 kts 55°
2026-04-30 12:22 17.32799 110.16414 32989 ft 493 kts 55°
2026-04-30 12:23 17.36615 110.22380 32988 ft 493 kts 54°
2026-04-30 12:23 17.40461 110.28327 32989 ft 494 kts 54°
2026-04-30 12:24 17.44317 110.34243 32988 ft 495 kts 54°
2026-04-30 12:24 17.48192 110.40193 32988 ft 495 kts 54°
2026-04-30 12:25 17.52065 110.46160 32988 ft 495 kts 54°
2026-04-30 12:25 17.55924 110.52112 32987 ft 493 kts 54°
2026-04-30 12:26 17.59775 110.58066 32988 ft 493 kts 54°
2026-04-30 12:26 17.63602 110.63968 32988 ft 493 kts 54°
2026-04-30 12:27 17.67453 110.69923 32988 ft 493 kts 54°
2026-04-30 12:27 17.71299 110.75883 32988 ft 493 kts 54°
2026-04-30 12:28 17.75143 110.81834 32989 ft 493 kts 54°
2026-04-30 12:28 17.78977 110.87781 32991 ft 491 kts 54°
2026-04-30 12:29 17.82801 110.93720 32994 ft 491 kts 54°
2026-04-30 12:29 17.86603 110.99630 32994 ft 492 kts 54°
2026-04-30 12:30 17.90424 111.05576 32997 ft 492 kts 54°
2026-04-30 12:30 17.94253 111.11534 33000 ft 493 kts 54°
2026-04-30 12:31 17.98077 111.17495 32996 ft 491 kts 54°
2026-04-30 12:31 18.01894 111.23449 32997 ft 491 kts 54°
2026-04-30 12:32 18.05703 111.29397 32998 ft 491 kts 54°
2026-04-30 12:32 18.09497 111.35309 32997 ft 491 kts 54°
2026-04-30 12:33 18.13297 111.41266 32997 ft 491 kts 55°
2026-04-30 12:33 18.17114 111.47242 33000 ft 491 kts 55°
2026-04-30 12:34 18.20928 111.53202 33006 ft 492 kts 54°
2026-04-30 12:34 18.24753 111.59188 33001 ft 493 kts 55°
2026-04-30 12:35 18.28570 111.65187 33007 ft 493 kts 55°
2026-04-30 12:35 18.31722 111.70172 33006 ft 493 kts 55°
2026-04-30 12:36 18.35542 111.76168 33006 ft 493 kts 55°
2026-04-30 12:36 18.39350 111.82164 33005 ft 492 kts 55°
2026-04-30 12:37 18.43132 111.88114 33009 ft 491 kts 55°
2026-04-30 12:37 18.46925 111.94106 33015 ft 491 kts 55°
2026-04-30 12:38 18.50724 112.00083 33011 ft 491 kts 55°
2026-04-30 12:38 18.54517 112.06082 33005 ft 491 kts 55°
2026-04-30 12:39 18.58310 112.12074 33013 ft 491 kts 55°
2026-04-30 12:39 18.62073 112.18028 33013 ft 490 kts 55°
2026-04-30 12:40 18.65835 112.24026 33009 ft 490 kts 57°
2026-04-30 12:40 18.69082 112.30362 33013 ft 491 kts 61°
2026-04-30 12:41 18.72263 112.36739 33011 ft 491 kts 61°
2026-04-30 12:41 18.75414 112.43082 33015 ft 491 kts 62°
2026-04-30 12:42 18.78588 112.49470 33017 ft 491 kts 62°
2026-04-30 12:42 18.81756 112.55847 33018 ft 490 kts 62°
2026-04-30 12:43 18.84924 112.62233 33013 ft 490 kts 62°
2026-04-30 12:43 18.88094 112.68621 33019 ft 491 kts 62°
2026-04-30 12:44 18.91256 112.75007 33017 ft 491 kts 62°
2026-04-30 12:44 18.94407 112.81398 33016 ft 490 kts 62°
2026-04-30 12:45 18.97548 112.87735 33012 ft 490 kts 62°
2026-04-30 12:45 19.00698 112.94132 33016 ft 490 kts 62°
2026-04-30 12:46 19.03850 113.00530 33015 ft 490 kts 62°
2026-04-30 12:46 19.06998 113.06924 33015 ft 490 kts 62°
2026-04-30 12:47 19.10141 113.13329 33016 ft 490 kts 62°
2026-04-30 12:47 19.13276 113.19717 33014 ft 489 kts 62°
2026-04-30 12:48 19.16407 113.26107 33014 ft 489 kts 62°
2026-04-30 12:48 19.19534 113.32446 33017 ft 489 kts 62°
2026-04-30 12:49 19.22662 113.38840 33014 ft 489 kts 62°
2026-04-30 12:49 19.25795 113.45246 33013 ft 490 kts 62°
2026-04-30 12:50 19.28928 113.51653 33014 ft 490 kts 62°
2026-04-30 12:50 19.32050 113.58059 33015 ft 490 kts 62°
2026-04-30 12:51 19.35174 113.64464 33012 ft 489 kts 62°
2026-04-30 12:51 19.38292 113.70874 33016 ft 489 kts 62°
2026-04-30 12:52 19.41416 113.77282 33015 ft 490 kts 62°
2026-04-30 12:52 19.44539 113.83702 33015 ft 490 kts 62°
2026-04-30 12:53 19.47652 113.90131 33018 ft 490 kts 62°
2026-04-30 12:53 19.50775 113.96571 33013 ft 492 kts 62°
2026-04-30 12:54 19.53880 114.02974 33015 ft 492 kts 62°
2026-04-30 12:54 19.57007 114.09449 33018 ft 492 kts 62°
2026-04-30 12:55 19.60134 114.15913 33016 ft 493 kts 62°
2026-04-30 12:55 19.63256 114.22383 33015 ft 493 kts 62°
2026-04-30 12:56 19.66377 114.28856 33018 ft 493 kts 62°
2026-04-30 12:56 19.69476 114.35298 33018 ft 493 kts 62°
2026-04-30 12:57 19.72602 114.41785 33018 ft 494 kts 62°
2026-04-30 12:57 19.75721 114.48299 33016 ft 495 kts 62°
2026-04-30 12:58 19.78854 114.54811 33013 ft 495 kts 62°
2026-04-30 12:58 19.81986 114.61326 33015 ft 495 kts 62°
2026-04-30 12:59 19.85057 114.67813 33015 ft 495 kts 62°
2026-04-30 12:59 19.88145 114.74355 33014 ft 495 kts 62°
2026-04-30 13:00 19.91269 114.80869 33016 ft 495 kts 62°
2026-04-30 13:00 19.94392 114.87398 33017 ft 495 kts 62°
2026-04-30 13:01 19.97523 114.93916 33025 ft 495 kts 62°
2026-04-30 13:01 20.00643 115.00448 33024 ft 496 kts 62°
2026-04-30 13:02 20.03756 115.07009 33015 ft 497 kts 63°
2026-04-30 13:02 20.06879 115.13572 33017 ft 497 kts 63°
2026-04-30 13:03 20.09971 115.20099 33016 ft 497 kts 63°
2026-04-30 13:03 20.13084 115.26670 33021 ft 497 kts 63°
2026-04-30 13:04 20.16197 115.33262 33018 ft 497 kts 63°
2026-04-30 13:04 20.19300 115.39839 33016 ft 496 kts 63°
2026-04-30 13:05 20.22398 115.46408 33017 ft 496 kts 63°
2026-04-30 13:06 20.28310 115.55305 33022 ft 494 kts 44°
2026-04-30 13:06 20.33099 115.60554 33022 ft 494 kts 44°
2026-04-30 13:07 20.37855 115.65849 33012 ft 493 kts 45°
2026-04-30 13:07 20.42566 115.71150 33015 ft 492 kts 45°
2026-04-30 13:08 20.47286 115.76455 33022 ft 492 kts 44°
2026-04-30 13:08 20.51973 115.81731 33025 ft 493 kts 44°
2026-04-30 13:09 20.56686 115.87038 33028 ft 492 kts 44°
2026-04-30 13:09 20.61397 115.92349 33024 ft 493 kts 44°
2026-04-30 13:10 20.66104 115.97658 33024 ft 491 kts 44°
2026-04-30 13:10 20.70793 116.02962 33025 ft 492 kts 44°
2026-04-30 13:11 20.75499 116.08274 33023 ft 492 kts 44°
2026-04-30 13:11 20.80204 116.13596 33027 ft 492 kts 44°
2026-04-30 13:12 20.84914 116.18927 33019 ft 493 kts 44°
2026-04-30 13:12 20.89589 116.24231 33029 ft 493 kts 44°
2026-04-30 13:13 20.96627 116.32219 33029 ft 491 kts 43°
2026-04-30 13:14 21.03668 116.40223 33025 ft 492 kts 43°
2026-04-30 13:14 21.10700 116.48233 33034 ft 492 kts 43°
2026-04-30 13:15 21.17729 116.56255 33030 ft 492 kts 43°
2026-04-30 13:16 21.22407 116.61611 33036 ft 492 kts 43°
2026-04-30 13:16 21.27091 116.66969 33034 ft 492 kts 43°
2026-04-30 13:17 21.34096 116.74986 33032 ft 492 kts 43°
2026-04-30 13:18 21.41132 116.83030 33037 ft 492 kts 43°
2026-04-30 13:18 21.48158 116.91095 33034 ft 494 kts 43°
2026-04-30 13:19 21.52865 116.96495 33033 ft 494 kts 43°
2026-04-30 13:19 21.57551 117.01895 33036 ft 495 kts 43°
2026-04-30 13:20 21.61454 117.06388 33036 ft 495 kts 43°
2026-04-30 13:20 21.66947 117.12712 33037 ft 495 kts 43°
2026-04-30 13:21 21.71609 117.18092 33040 ft 495 kts 43°
2026-04-30 13:22 21.78663 117.26238 33039 ft 496 kts 43°
2026-04-30 13:22 21.84922 117.33483 33047 ft 496 kts 43°
2026-04-30 13:23 21.91978 117.41655 33044 ft 496 kts 44°
2026-04-30 13:24 22.00905 117.53002 33049 ft 501 kts 56°
2026-04-30 13:25 22.08166 117.65848 33054 ft 501 kts 56°
2026-04-30 13:26 22.17229 117.81845 33055 ft 499 kts 56°
2026-04-30 13:28 22.26269 117.97847 33056 ft 499 kts 56°
2026-04-30 13:28 22.31775 118.07392 33061 ft 499 kts 55°
2026-04-30 13:29 22.39184 118.20072 33068 ft 498 kts 55°
2026-04-30 13:31 22.48262 118.36062 33060 ft 498 kts 56°
2026-04-30 13:32 22.57348 118.52135 33069 ft 501 kts 56°
2026-04-30 13:33 22.64634 118.64916 33054 ft 500 kts 56°
2026-04-30 13:34 22.70120 118.74560 33056 ft 502 kts 56°
2026-04-30 13:35 22.77428 118.87444 33057 ft 502 kts 56°
2026-04-30 13:36 22.84710 119.00322 33059 ft 501 kts 56°
2026-04-30 13:36 22.90169 119.10011 33059 ft 502 kts 56°
2026-04-30 13:37 22.95604 119.19654 33058 ft 502 kts 56°
2026-04-30 13:38 23.01057 119.29353 33065 ft 502 kts 56°
2026-04-30 13:39 23.08306 119.42292 33052 ft 501 kts 56°
2026-04-30 13:40 23.13718 119.51958 33052 ft 501 kts 57°
2026-04-30 13:40 23.17350 119.58450 33047 ft 502 kts 57°
2026-04-30 13:41 23.20976 119.64946 33062 ft 503 kts 57°
2026-04-30 13:41 23.24596 119.71424 33054 ft 501 kts 57°
2026-04-30 13:42 23.28185 119.77863 33046 ft 501 kts 57°
2026-04-30 13:42 23.33601 119.87591 33049 ft 501 kts 57°
2026-04-30 13:43 23.37570 119.93770 33046 ft 497 kts 43°
2026-04-30 13:43 23.42559 119.98953 33072 ft 495 kts 39°
2026-04-30 13:44 23.45094 120.01511 33210 ft 496 kts 39°
2026-04-30 13:44 23.47613 120.04080 33460 ft 496 kts 40°
2026-04-30 13:44 23.50126 120.06659 33699 ft 495 kts 40°
2026-04-30 13:44 23.52630 120.09237 33923 ft 495 kts 40°
2026-04-30 13:45 23.57626 120.14404 34307 ft 495 kts 40°
2026-04-30 13:45 23.60093 120.16948 34490 ft 495 kts 40°
2026-04-30 13:45 23.62587 120.19532 34661 ft 494 kts 40°
2026-04-30 13:46 23.65082 120.22125 34864 ft 494 kts 40°
2026-04-30 13:46 23.67572 120.24723 35019 ft 494 kts 40°
2026-04-30 13:46 23.70056 120.27313 35081 ft 495 kts 40°
2026-04-30 13:47 23.75043 120.32490 35054 ft 494 kts 40°
2026-04-30 13:47 23.80038 120.37648 35042 ft 494 kts 39°
2026-04-30 13:48 23.85017 120.42769 35035 ft 494 kts 40°
2026-04-30 13:48 23.90018 120.47946 35042 ft 494 kts 38°
2026-04-30 13:49 23.95433 120.52509 35047 ft 491 kts 32°
2026-04-30 13:49 24.00934 120.56921 35055 ft 491 kts 32°
2026-04-30 13:50 24.06440 120.61364 35066 ft 491 kts 32°
2026-04-30 13:50 24.14679 120.68022 35087 ft 491 kts 32°
2026-04-30 13:51 24.20181 120.72472 35083 ft 491 kts 32°
2026-04-30 13:51 24.25687 120.76941 35083 ft 492 kts 32°
2026-04-30 13:52 24.31156 120.81373 35084 ft 492 kts 32°
2026-04-30 13:52 24.36646 120.85828 35088 ft 492 kts 32°
2026-04-30 13:53 24.42142 120.90298 35081 ft 492 kts 32°
2026-04-30 13:53 24.47647 120.94779 35085 ft 492 kts 32°
2026-04-30 13:54 24.53139 120.99252 35089 ft 492 kts 33°
2026-04-30 13:54 24.58644 121.03742 35105 ft 493 kts 33°
2026-04-30 13:55 24.64157 121.08246 35104 ft 493 kts 33°
2026-04-30 13:55 24.69662 121.12744 35103 ft 493 kts 33°
2026-04-30 13:56 24.75128 121.17216 35099 ft 493 kts 33°
2026-04-30 13:56 24.80626 121.21723 35111 ft 492 kts 33°
2026-04-30 13:57 24.86131 121.26232 35099 ft 494 kts 33°
2026-04-30 13:57 24.91654 121.30770 35112 ft 495 kts 33°
2026-04-30 13:58 24.99935 121.37578 35113 ft 495 kts 33°
2026-04-30 13:59 25.05453 121.42123 35123 ft 494 kts 33°
2026-04-30 13:59 25.10927 121.46636 35115 ft 494 kts 33°
2026-04-30 14:00 25.16421 121.51194 35111 ft 495 kts 35°
2026-04-30 14:00 25.21271 121.56667 35112 ft 503 kts 46°
2026-04-30 14:00 25.23567 121.59589 35131 ft 505 kts 47°
2026-04-30 14:01 25.28161 121.65429 35117 ft 502 kts 46°
2026-04-30 14:01 25.32757 121.71244 35116 ft 502 kts 46°
2026-04-30 14:02 25.37356 121.77056 35125 ft 502 kts 46°
2026-04-30 14:02 25.41937 121.82848 35124 ft 505 kts 46°
2026-04-30 14:03 25.46581 121.88738 35142 ft 505 kts 46°
2026-04-30 14:03 25.51165 121.94555 35132 ft 504 kts 46°
2026-04-30 14:04 25.55800 122.00447 35139 ft 504 kts 46°
2026-04-30 14:04 25.60386 122.06263 35139 ft 504 kts 44°
2026-04-30 14:05 25.65762 122.11148 35165 ft 499 kts 30°
2026-04-30 14:05 25.71464 122.15523 35145 ft 498 kts 30°
2026-04-30 14:06 25.79975 122.22128 35141 ft 498 kts 30°
2026-04-30 14:07 25.88485 122.28765 35154 ft 499 kts 30°
2026-04-30 14:08 25.96066 122.34686 35134 ft 500 kts 30°
2026-04-30 14:08 26.05553 122.42113 35128 ft 502 kts 31°
2026-04-30 14:09 26.10328 122.45863 35146 ft 503 kts 30°
2026-04-30 14:10 26.19847 122.53332 35137 ft 504 kts 30°
2026-04-30 14:10 26.24599 122.57089 35137 ft 504 kts 30°
2026-04-30 14:11 26.30316 122.61594 35169 ft 504 kts 30°
2026-04-30 14:11 26.36071 122.66131 35135 ft 506 kts 30°
2026-04-30 14:12 26.41807 122.70675 35135 ft 506 kts 30°
2026-04-30 14:12 26.47560 122.75223 35138 ft 506 kts 30°
2026-04-30 14:13 26.53302 122.79776 35166 ft 508 kts 30°
2026-04-30 14:13 26.59082 122.84352 35144 ft 509 kts 30°
2026-04-30 14:14 26.64860 122.88926 35140 ft 509 kts 30°
2026-04-30 14:14 26.70641 122.93510 35146 ft 509 kts 30°
2026-04-30 14:15 26.76421 122.98098 35141 ft 511 kts 30°
2026-04-30 14:15 26.82219 123.02712 35140 ft 511 kts 30°
2026-04-30 14:16 26.87980 123.07317 35143 ft 511 kts 30°
2026-04-30 14:16 26.93767 123.11941 35142 ft 511 kts 30°
2026-04-30 14:17 26.99558 123.16580 35137 ft 511 kts 30°
2026-04-30 14:17 27.05354 123.21226 35142 ft 512 kts 30°
2026-04-30 14:18 27.11146 123.25871 35139 ft 512 kts 30°
2026-04-30 14:18 27.19850 123.32867 35153 ft 514 kts 29°
2026-04-30 14:19 27.28581 123.39901 35136 ft 514 kts 29°
2026-04-30 14:20 27.34360 123.44562 35132 ft 514 kts 29°
2026-04-30 14:20 27.43089 123.51634 35142 ft 515 kts 29°
2026-04-30 14:21 27.48891 123.56353 35142 ft 515 kts 29°
2026-04-30 14:22 27.57624 123.63424 35169 ft 515 kts 28°
2026-04-30 14:22 27.66210 123.70704 35136 ft 519 kts 31°
2026-04-30 14:23 27.77577 123.80765 35164 ft 520 kts 31°
2026-04-30 14:24 27.86121 123.88351 35143 ft 521 kts 31°
2026-04-30 14:25 27.97522 123.98515 35157 ft 523 kts 31°
2026-04-30 14:26 28.06093 124.06195 35141 ft 524 kts 31°
2026-04-30 14:27 28.14654 124.13818 35132 ft 524 kts 31°
2026-04-30 14:27 28.20402 124.18960 35154 ft 530 kts 31°
2026-04-30 14:28 28.29092 124.26766 35127 ft 529 kts 31°
2026-04-30 14:28 28.34867 124.31957 35131 ft 529 kts 31°
2026-04-30 14:29 28.46482 124.42424 35128 ft 537 kts 31°
2026-04-30 14:31 28.61127 124.55664 35135 ft 541 kts 31°
2026-04-30 14:31 28.69923 124.63643 35124 ft 541 kts 31°
2026-04-30 14:32 28.79033 124.70996 35127 ft 522 kts 13°
2026-04-30 14:33 28.85768 124.73782 35105 ft 514 kts
2026-04-30 14:33 28.95974 124.77766 35117 ft 518 kts
2026-04-30 14:34 29.02770 124.80478 35117 ft 518 kts
2026-04-30 14:34 29.09529 124.83182 35118 ft 518 kts
2026-04-30 14:35 29.19726 124.87257 35139 ft 518 kts
2026-04-30 14:36 29.26532 124.89988 35119 ft 519 kts
2026-04-30 14:36 29.33348 124.92721 35117 ft 519 kts
2026-04-30 14:37 29.40156 124.95453 35178 ft 519 kts
2026-04-30 14:37 29.46930 124.98192 35123 ft 520 kts
2026-04-30 14:38 29.53764 125.00948 35100 ft 523 kts
2026-04-30 14:38 29.60641 125.03706 35151 ft 523 kts
2026-04-30 14:39 29.67525 125.06483 35117 ft 524 kts
2026-04-30 14:39 29.74358 125.09248 35109 ft 524 kts
2026-04-30 14:40 29.84681 125.13434 35139 ft 525 kts
2026-04-30 14:40 29.91588 125.16240 35109 ft 527 kts
2026-04-30 14:41 29.98503 125.19055 35101 ft 527 kts
2026-04-30 14:41 30.05403 125.21906 35130 ft 527 kts
2026-04-30 14:42 30.12281 125.24722 35108 ft 528 kts
2026-04-30 14:42 30.19228 125.27564 35088 ft 531 kts
2026-04-30 14:43 30.26199 125.30425 35137 ft 531 kts
2026-04-30 14:43 30.33170 125.33293 35103 ft 532 kts
2026-04-30 14:44 30.40158 125.36168 35091 ft 532 kts
2026-04-30 14:44 30.47132 125.39028 35123 ft 532 kts
2026-04-30 14:45 30.54051 125.41875 35090 ft 531 kts
2026-04-30 14:45 30.61004 125.44751 35084 ft 531 kts
2026-04-30 14:46 30.67955 125.47623 35117 ft 528 kts
2026-04-30 14:46 30.74877 125.50490 35039 ft 528 kts
2026-04-30 14:47 30.81847 125.53383 35072 ft 534 kts
2026-04-30 14:47 30.88800 125.56289 35095 ft 533 kts
2026-04-30 14:48 30.95774 125.59188 35078 ft 532 kts
2026-04-30 14:48 31.02754 125.62101 35074 ft 532 kts
2026-04-30 14:49 31.09723 125.65012 35072 ft 532 kts
2026-04-30 14:49 31.16698 125.67933 35074 ft 532 kts
2026-04-30 14:50 31.27094 125.72313 35120 ft 530 kts 10°
2026-04-30 14:51 31.37473 125.76687 35026 ft 532 kts
2026-04-30 14:52 31.47984 125.81123 35094 ft 533 kts 10°
2026-04-30 14:52 31.58427 125.85514 35056 ft 531 kts 10°
2026-04-30 14:53 31.68808 125.89869 35073 ft 529 kts 11°
2026-04-30 14:54 31.82676 125.95710 35113 ft 529 kts 11°
2026-04-30 14:55 31.92992 126.00073 35056 ft 524 kts 11°
2026-04-30 14:56 32.06657 126.05867 35068 ft 521 kts 12°
2026-04-30 14:57 32.16877 126.10195 35038 ft 520 kts 12°
2026-04-30 14:58 32.30464 126.15970 35048 ft 517 kts 12°
2026-04-30 14:58 32.40574 126.20272 35038 ft 517 kts 12°
2026-04-30 15:00 32.57477 126.27489 35022 ft 520 kts 12°
2026-04-30 15:01 32.71064 126.33332 35033 ft 517 kts 13°
2026-04-30 15:01 32.81172 126.37687 35050 ft 514 kts 13°
2026-04-30 15:02 32.87840 126.40563 35031 ft 512 kts 13°
2026-04-30 15:03 33.03924 126.49559 35019 ft 521 kts 37°
2026-04-30 15:04 33.17607 126.63920 35036 ft 524 kts 38°
2026-04-30 15:06 33.31324 126.78218 35007 ft 524 kts 39°
2026-04-30 15:07 33.42266 126.89673 35006 ft 524 kts 39°
2026-04-30 15:08 33.53199 127.01155 34969 ft 519 kts 39°
2026-04-30 15:08 33.60987 127.10210 34492 ft 528 kts 47°
2026-04-30 15:09 33.65881 127.16796 34020 ft 527 kts 48°
2026-04-30 15:09 33.70707 127.23299 33498 ft 523 kts 48°
2026-04-30 15:10 33.75581 127.29835 32960 ft 526 kts 48°
2026-04-30 15:11 33.85205 127.42800 31950 ft 515 kts 48°
2026-04-30 15:11 33.89955 127.49222 31446 ft 513 kts 49°
2026-04-30 15:12 33.96986 127.58735 30018 ft 505 kts 49°
2026-04-30 15:13 34.01653 127.65063 28672 ft 503 kts 49°
2026-04-30 15:14 34.10832 127.77548 26301 ft 491 kts 50°
2026-04-30 15:14 34.17525 127.86689 24658 ft 480 kts 51°
2026-04-30 15:16 34.28165 128.01255 21698 ft 440 kts 51°
2026-04-30 15:17 34.35925 128.11916 19683 ft 402 kts 52°
2026-04-30 15:18 34.44268 128.23426 17638 ft 385 kts 51°
2026-04-30 15:19 34.49533 128.30701 16343 ft 380 kts 51°